Vorticity
nan nan nan nan nan nan nan nan nan nan nan nan nan nan nan nan nan nan nan nan nan nan nan nan nan nan nan nan nan nan nan nan nan nan nan nan nan nan nan nan nan nan nan nan nan nan nan nan nan
nan 4 5 6 7 6 7 6 10 8 9 8 6 5 4 8 14 12 12 11 7 5 5 9 9 5 5 4 5 5 5 4 5 5 6 5 4 5 5 5 4 4 4 4 4 5 5 5 nan
nan 4 5 6 6 8 10 9 7 10 3 -1 5 7 8 12 11 6 9 10 5 4 7 11 9 5 5 3 4 4 4 4 5 5 5 5 4 4 5 5 5 4 4 4 4 5 5 4 nan
nan 2 7 6 5 9 5 10 10 4 2 10 8 4 13 9 7 13 10 4 4 6 9 10 7 5 4 3 4 4 4 3 3 4 4 5 4 4 5 4 4 4 4 4 5 5 6 5 nan
nan 8 8 7 9 13 15 6 3 6 12 9 5 7 8 8 14 11 4 5 6 7 8 9 7 5 5 4 4 4 4 3 4 4 4 4 4 3 4 5 4 4 4 5 6 5 6 6 nan
nan 5 6 9 13 12 11 5 6 10 10 6 7 6 7 15 6 4 6 6 6 7 7 9 7 4 5 5 4 4 4 3 4 4 4 4 4 4 3 4 4 4 6 6 6 5 5 6 nan
nan 6 4 10 14 6 10 12 9 8 3 7 2 2 12 8 5 7 6 5 7 6 6 8 8 8 5 4 5 4 4 4 4 4 3 4 5 4 3 3 4 4 5 6 6 5 5 5 nan
nan 3 4 9 8 13 11 13 12 0 3 6 -0 8 12 7 8 4 5 6 6 4 5 6 7 8 6 9 8 5 5 5 4 4 3 4 6 4 4 4 3 4 4 6 6 4 5 4 nan
nan 4 7 7 10 18 13 7 3 5 9 -3 14 20 13 7 3 5 5 5 6 6 5 5 6 6 7 8 10 9 7 5 5 5 4 4 4 7 9 7 6 8 6 5 5 5 5 6 nan
nan 3 5 4 1 14 18 5 2 10 -0 8 20 13 9 6 3 5 4 5 6 6 5 5 6 5 6 6 6 7 6 7 7 7 7 8 7 8 11 7 5 6 8 8 7 7 7 9 nan
nan 3 1 4 15 17 7 3 7 6 6 14 4 6 5 2 4 5 5 6 6 5 5 7 6 5 4 4 5 6 7 7 8 8 8 6 6 7 7 5 7 7 8 7 7 9 8 9 nan
nan 6 6 8 18 15 6 2 8 2 13 14 9 4 3 4 4 4 5 5 7 7 6 6 6 5 3 5 7 6 5 6 7 9 8 6 7 7 6 7 8 6 6 6 7 6 7 8 nan
nan 7 10 7 8 12 10 9 7 7 14 10 7 6 4 4 5 5 6 4 7 7 7 7 5 5 5 4 5 7 7 7 7 8 8 7 8 8 6 7 8 6 7 8 8 8 8 7 nan
nan 10 14 13 10 8 10 2 13 21 11 9 6 3 4 5 4 5 7 6 5 6 7 7 7 7 5 4 5 6 7 7 7 8 9 8 7 7 7 7 7 9 8 9 10 8 6 8 nan
nan 8 13 14 13 7 11 10 17 16 9 5 4 4 5 5 6 5 4 5 7 8 8 6 6 7 7 6 5 7 8 10 8 9 9 8 6 8 8 8 8 8 9 9 6 6 7 7 nan
nan 9 10 9 20 13 3 14 14 10 6 6 4 5 7 8 5 4 5 5 7 9 8 6 6 7 6 5 5 7 9 9 11 10 9 9 7 7 7 7 7 7 9 9 7 7 6 7 nan
nan 8 2 15 14 6 2 17 17 9 5 6 6 5 5 8 5 7 6 7 9 8 7 7 7 6 5 5 7 8 8 7 8 9 10 9 8 6 7 7 7 9 8 8 7 8 7 6 nan
nan 6 8 5 8 10 9 18 16 11 5 6 5 6 7 7 9 6 7 9 10 8 8 6 7 6 5 4 6 7 8 7 8 9 9 9 8 8 6 7 8 7 7 6 7 8 8 8 nan
nan 4 2 3 9 16 11 14 14 8 4 6 7 7 8 5 10 8 9 11 9 9 8 7 5 6 4 5 6 7 8 7 9 11 9 8 8 8 6 7 8 7 8 8 7 7 7 7 nan
nan 3 -1 10 11 10 18 14 11 10 10 6 4 7 7 7 5 10 9 9 8 8 7 7 6 5 4 6 6 7 9 8 9 9 10 9 8 8 8 8 8 7 8 10 7 6 7 9 nan
nan 6 8 2 8 13 9 5 14 8 12 13 11 9 9 8 5 5 6 6 8 8 8 7 9 7 5 4 3 4 7 9 9 9 11 11 9 8 8 8 8 9 9 9 7 8 8 7 nan
nan 10 8 3 7 11 2 10 8 10 11 15 10 7 8 7 8 9 8 4 5 7 8 7 8 9 8 6 6 5 4 6 7 8 9 11 11 9 8 8 8 8 9 9 8 7 7 9 nan
nan 10 12 12 6 6 5 10 13 15 6 9 13 11 8 9 8 7 8 8 4 6 7 8 6 7 10 7 5 5 5 5 7 10 10 9 11 10 8 7 8 7 9 10 8 7 7 7 nan
nan 9 10 13 10 6 15 3 8 16 12 6 9 11 12 8 8 9 9 7 7 6 7 10 8 5 7 8 8 7 4 4 4 7 9 10 10 11 9 8 7 7 8 8 9 9 8 7 nan
nan 6 7 9 13 10 10 9 11 11 16 11 1 4 14 14 8 8 8 8 9 9 7 8 10 7 6 7 7 7 6 6 5 6 9 9 6 9 12 9 7 8 9 9 9 9 9 7 nan
nan 10 6 7 8 13 13 8 12 18 15 11 6 5 10 12 9 9 9 8 8 9 8 9 8 8 7 7 6 7 6 4 8 8 8 10 10 10 10 7 8 8 9 8 7 7 9 9 nan
nan 13 10 6 2 5 10 7 11 16 18 16 8 10 11 11 10 8 8 9 9 9 10 8 7 8 8 7 6 7 7 7 7 9 8 10 10 9 11 10 8 8 7 7 7 8 9 8 nan
nan 1 7 16 15 2 5 7 13 6 11 22 18 10 9 10 11 8 10 11 9 9 11 10 9 9 7 6 5 8 8 6 7 8 9 8 9 10 10 10 9 7 7 8 6 7 9 8 nan
nan 2 7 10 11 11 4 6 15 8 9 14 21 16 11 9 11 9 10 13 10 9 11 9 10 8 8 8 8 6 9 9 6 5 8 9 9 10 9 9 9 8 7 7 7 8 9 8 nan
nan nan nan nan nan nan nan nan nan nan nan nan nan nan nan nan nan nan nan nan nan nan nan nan nan nan nan nan nan nan nan nan nan nan nan nan nan nan nan nan nan nan nan nan nan nan nan nan nan
CAPE
511 545 301 345 132 149 48 93 151 141 99 81 130 232 23 19 1 0 0 0 0 16 207 650 1411 2048 2353 2866 2674 2749 2503 2551 3036 2964 2456 2158 2168 2287 2312 2123 2116 2035 1867 1860 1927 1770 1546 1466 1395
671 342 53 13 96 21 91 81 40 154 135 180 186 89 26 11 1 0 8 0 65 142 309 667 1599 2223 2390 2609 2730 2825 2541 2461 3148 2922 2500 2240 2204 2249 2051 2052 2002 1878 1844 1795 1769 1899 1929 1646 1424
49 41 210 367 65 34 16 25 176 115 147 44 143 118 12 24 12 13 13 52 197 302 490 878 1705 2248 2375 2331 2591 2726 2675 2436 2907 2476 1991 1955 1944 1978 1903 1858 1851 1882 1844 1824 1803 1795 1752 1873 1579
21 2 4 708 160 65 182 299 493 277 179 220 108 9 61 61 72 67 80 26 61 295 675 1648 2167 1906 2232 2350 2517 2183 2181 2133 2601 2662 2037 1893 1938 1821 1713 1727 1744 1774 1838 1790 1770 1773 1651 1716 1896
66 261 255 355 249 185 291 39 392 384 331 243 27 96 87 91 88 82 20 27 155 461 821 1459 2199 2533 2531 2594 2286 2311 1995 1890 2504 2709 1952 1843 1927 1712 1592 1541 1640 1725 1677 1754 1584 1533 1647 1588 1754
17 271 340 9 0 195 319 221 415 338 335 261 178 82 26 99 132 69 78 141 365 708 1002 1334 2063 2192 2651 2184 1884 2053 1799 1809 2405 2537 2231 2070 2038 1901 1605 1535 1524 1632 1812 1811 1568 1481 1669 1753 1654
4 1 94 1 46 216 380 421 283 366 318 324 206 84 97 134 143 211 275 347 457 800 1051 1137 1184 1191 1851 2571 1971 1981 1897 1867 2020 2070 2279 2415 2019 1918 1528 1398 1477 1559 1581 1766 1688 1449 1559 1650 1609
0 1 9 0 6 24 199 251 321 389 468 334 199 184 182 158 146 299 314 279 401 679 1055 1157 1276 1120 1695 1922 2017 2170 2232 2015 1973 2030 1898 1905 1805 1739 1627 1726 1322 1396 1356 1581 1661 1479 1554 1681 1635
56 44 1 0 14 55 274 350 382 482 377 291 367 218 150 161 310 417 240 394 498 706 966 1173 1244 1296 1541 1761 1703 2191 2140 2130 2014 1921 2008 2371 1245 869 1410 1631 1406 1569 1681 1396 1492 1485 1715 2169 2019
194 25 13 50 21 45 197 339 536 432 346 389 363 276 195 335 376 433 438 480 610 655 733 1089 1194 1286 1359 1756 1346 1593 1401 1570 1715 1731 1517 1443 741 580 1610 1323 217 688 1654 1603 1824 1874 1855 2062 1344
1 0 0 26 33 154 362 492 550 397 435 286 417 310 367 354 383 449 489 573 657 665 801 923 1050 1148 1152 1327 1240 1142 902 842 1040 1056 790 856 702 234 315 93 0 0 765 529 690 916 1142 1304 275
0 0 0 18 15 38 209 403 707 526 465 421 464 400 399 421 437 514 521 513 634 827 902 819 907 1027 826 772 1291 1123 806 370 464 518 542 495 607 24 134 0 254 247 606 133 775 565 767 993 605
0 0 0 7 37 0 0 298 687 531 580 599 555 577 568 439 443 474 534 526 718 894 863 813 943 1014 882 856 911 928 635 405 292 394 688 702 371 167 57 214 410 292 487 396 675 782 871 765 554
0 0 0 0 3 11 0 17 134 518 689 735 630 629 683 567 515 430 492 563 662 794 710 927 986 822 1016 989 735 674 619 462 394 687 896 604 328 166 227 155 535 608 578 689 716 731 421 55 15
0 0 0 0 0 9 2 67 632 668 679 802 766 721 697 620 524 389 421 488 615 530 714 800 925 1027 1082 871 761 710 1074 869 532 864 872 1087 805 350 476 574 408 698 610 884 405 246 41 5 11
0 0 0 0 0 0 7 57 744 697 723 859 900 908 806 618 590 396 270 401 423 619 760 757 1081 1277 985 1076 1317 1187 916 329 305 662 995 1216 755 736 898 925 968 564 479 544 510 365 229 144 0
0 0 0 0 0 8 1 0 108 713 625 542 566 836 760 712 654 562 430 280 368 892 1007 936 982 1135 925 1018 1270 1222 661 762 593 827 950 1009 1095 1325 983 759 701 271 712 355 105 81 106 1 0
0 0 0 0 0 1 0 0 0 733 688 666 587 476 480 683 837 454 449 232 585 926 1095 1147 1157 918 1018 1059 967 1020 622 554 948 823 800 1338 1358 1372 608 906 503 303 494 173 67 38 0 0 0
0 0 0 0 0 0 0 0 0 198 511 583 600 551 483 454 342 310 154 249 274 680 1060 1144 1120 851 971 923 986 990 1053 946 859 925 416 629 819 933 684 719 906 652 518 106 49 0 0 0 0
0 0 0 0 0 0 1 0 0 8 65 278 321 375 453 409 352 255 204 323 319 755 1023 1129 1033 818 772 820 923 979 1030 948 994 731 720 657 647 812 891 765 818 838 720 154 0 0 0 0 0
0 0 0 0 0 0 6 35 2 0 1 2 46 88 211 190 171 207 285 287 431 688 776 744 1072 1051 919 916 1001 894 817 773 944 884 852 907 1017 1006 1083 877 810 636 433 90 0 0 0 0 0
0 0 0 0 0 0 7 1 43 0 0 0 0 4 62 71 32 94 277 229 370 609 669 657 820 1350 1191 1176 1156 1140 1033 1027 979 841 947 1330 1323 1202 938 800 611 280 96 36 0 0 0 0 0
0 0 0 0 0 0 0 0 0 11 0 0 0 1 59 24 36 7 218 267 257 437 698 643 467 1499 1468 1388 1214 1172 991 873 578 768 979 945 1405 1349 956 817 709 226 36 4 0 0 0 0 0
0 0 0 0 0 0 0 0 0 0 0 0 1 0 2 28 16 0 74 153 215 353 681 762 614 777 1460 1493 1334 1267 1101 858 651 577 738 948 1480 1244 1049 887 942 105 7 0 0 0 0 6 8
0 0 0 0 0 0 0 0 0 0 0 0 26 0 0 2 37 0 3 71 97 205 565 924 850 740 1102 1520 1388 1283 1121 897 722 446 791 1251 1336 1034 1239 1026 833 97 0 0 0 0 0 0 0
0 0 0 0 0 0 0 0 0 0 0 7 13 1 0 0 4 17 4 63 63 184 591 935 1074 961 1186 1274 1446 1411 1237 1111 975 373 1032 1141 1291 1349 991 1076 560 44 0 0 0 0 0 1 0
0 0 0 0 0 0 0 0 0 0 0 0 2 5 0 0 0 0 36 66 122 220 567 903 1332 1231 1368 1565 1234 1471 1554 1307 1123 849 946 1129 1014 1099 913 1058 437 65 3 2 10 0 0 18 0
0 0 0 0 0 0 0 0 0 0 0 0 0 6 2 0 0 0 2 118 246 220 610 1040 1415 1448 1651 1818 1647 1433 1434 1625 1211 828 1206 1064 873 1003 915 825 540 146 14 72 15 4 0 9 7
0 0 0 0 0 0 0 0 0 0 0 0 6 27 19 10 8 0 4 120 289 357 795 1198 1442 1435 1748 1969 1883 1868 1645 1384 1496 1230 1256 1410 846 587 859 711 662 305 87 26 0 1 3 0 6
0 0 0 0 0 0 0 0 0 0 0 0 0 1 114 100 3 8 1 71 259 524 940 1143 1665 1674 1771 2102 2106 2028 2035 1836 1510 1410 1453 1197 1201 643 823 710 897 655 243 32 80 0 0 5 0